Location: Dumpton Point
(51.3500°N, 1.4433°E)
Time: 11:05:41
(UTC+00:00)

Altair - Visible Passes

Search period start: 18 April 2021 00:00
Search period end: 28 April 2021 00:00
Orbit: 1501 x 1683 km, 47.2° (Epoch: 17 April)

Date Brightness Start Highest point End Pass type
(mag) Time Alt. Az. Time Alt. Az. Time Alt. Az.
18 Apr 9.6 03:53:16 10° SSE 03:57:18 13° SE 04:01:18 10° E visible
19 Apr 9.6 03:29:17 10° SE 03:32:19 12° ESE 03:35:20 10° ESE visible
20 Apr 9.7 03:06:03 10° SE 03:07:20 10° ESE 03:08:38 10° ESE visible
23 Apr 8.9 03:46:29 10° SSW 03:54:32 29° SE 04:02:23 10° E visible
24 Apr 8.9 03:21:38 10° S 03:29:29 27° SE 03:37:08 10° E visible
25 Apr 8.9 02:56:50 10° S 03:04:26 25° SE 03:11:51 10° E visible
26 Apr 9.0 02:32:05 10° S 02:39:23 24° SE 02:46:32 10° E visible
27 Apr 9.0 02:08:02 12° S 02:14:20 22° SE 02:21:11 10° E visible
